Home   Weather   Dieppe   Past weeks
Flag for Canada

Past Weather in Dieppe, New Brunswick, Canada — Yesterday and Last 2 Weeks

Now
50 °F

Passing clouds.


Feels Like: 45 °F
Forecast: 51 / 43 °F
Wind: 13 mph from Southeast

Location: Moncton

Current Time: Oct 17, 2019 at 10:29:40 pm

Latest Report: Oct 17, 2019 at 10:00 pm


Visibility: 15 mi

Pressure: 29.23 "Hg

Humidity: 88%

Dew Point: 46 °F

Location of DieppeLocation

Past Weather in Dieppe — Graph

°F

Dieppe Temperature Yesterday

Maximum temperature yesterday: 57 °F (at 3:00 pm)
Minimum temperature yesterday: 34 °F (at 5:00 am)
Average temperature yesterday: 45 °F

High & Low Weather Summary for the Past Weeks

 TemperatureHumidityPressure
High63 °F (Oct 6, 3:00 pm)100% (Oct 6, 6:00 am)30.47 "Hg (Oct 6, 6:00 am)
Low30 °F (Oct 6, 6:00 am)36% (Oct 6, 2:00 pm)29.15 "Hg (Oct 17, 4:00 pm)
Average48 °F82%30.09 "Hg
* Reported Oct 2 9:00 pm — Oct 17 9:00 pm, Dieppe. Weather by CustomWeather, © 2019

Note: Actual official high and low records may vary slightly from our data, if they occured in-between our weather recording intervals... More about our weather records

Advertising

Dieppe Weather History for the Previous 24 Hours

Scroll right to see more
 ConditionsComfort  
Time TempWeatherWind HumidityBarometerVisibility
9:00 pm
Thu, Oct 17
50 °FPassing clouds.10 mph88%29.22 "Hg15 mi
8:00 pm52 °FPartly cloudy.6 mph82%29.22 "Hg15 mi
7:00 pm50 °FPassing clouds.8 mph88%29.21 "Hg15 mi
6:00 pm55 °FPartly sunny.9 mph82%29.18 "Hg15 mi
5:00 pm59 °FBroken clouds.14 mph88%29.17 "Hg15 mi
4:40 pm57 °FPassing clouds.12 mph94%29.16 "Hg15 mi
4:21 pm55 °FSprinkles. Partly sunny.14 mph94%29.16 "Hg8 mi
4:00 pm54 °FDrizzle. Fog.21 mph100%29.15 "Hg2 mi
3:00 pm54 °FDrizzle. Fog.26 mph94%29.17 "Hg2 mi
2:36 pm54 °FDrizzle. Fog.28 mph94%29.18 "Hg2 mi
2:00 pm52 °FRain. Fog.24 mph94%29.23 "Hg3 mi
1:32 pm52 °FHeavy rain. Fog.32 mph94%29.28 "Hg1 mi
11:27 am50 °FRain. Mostly cloudy.25 mph88%29.44 "Hg7 mi
11:00 am50 °FMostly cloudy.24 mph82%29.49 "Hg15 mi
10:08 am50 °FSprinkles. Mostly cloudy.20 mph82%29.57 "Hg15 mi
9:00 am50 °FCloudy.24 mph76%29.63 "Hg15 mi
8:00 am48 °FMostly cloudy.18 mph76%29.66 "Hg15 mi
7:00 am46 °FPassing clouds.14 mph76%29.72 "Hg15 mi
5:00 am43 °FMostly cloudy.12 mph81%29.82 "Hg15 mi
4:00 am41 °FPassing clouds.10 mph87%29.85 "Hg15 mi
3:00 am41 °FPassing clouds.9 mph87%29.89 "Hg15 mi
2:00 am41 °FPassing clouds.8 mph87%29.93 "Hg15 mi
1:00 am41 °FPassing clouds.6 mph87%29.93 "Hg15 mi
12:00 am39 °FPassing clouds.8 mph93%29.95 "Hg15 mi
11:00 pm
Wed, Oct 16
41 °FPassing clouds.8 mph87%29.98 "Hg15 mi
10:00 pm41 °FPassing clouds.8 mph87%29.99 "Hg15 mi
Weather by CustomWeather, © 2019

See weather overview